Wetbulb
76.31 76.93 77.28 77.22 77.82 78.44 77.87 78.60 79.40 79.44 79.95 79.02 79.13 78.07 77.81 78.37 78.76 78.97 79.71 79.17 78.95 78.31 77.61 77.02 77.27 77.69 77.66 75.20 75.02 74.29 73.07 72.53 69.79 69.97 72.33 75.68 74.97 74.61 74.79 74.74 74.73 74.06 71.91
76.35 76.80 76.87 77.57 77.88 77.42 77.73 77.69 78.62 79.46 79.31 78.64 78.83 79.06 78.86 79.12 79.83 79.16 78.80 78.14 78.04 77.41 77.27 77.21 77.30 76.16 76.83 76.73 75.99 75.39 74.08 73.92 71.00 71.55 73.56 72.85 73.27 72.70 73.54 73.22 72.75 73.15 72.00
74.63 75.92 76.45 76.89 77.22 77.27 77.85 78.25 78.49 79.54 79.78 78.90 80.21 80.42 80.14 79.65 79.57 79.46 79.68 78.35 77.54 77.45 77.10 76.44 75.91 76.20 75.57 75.31 75.80 74.35 73.63 73.45 73.26 70.60 70.18 72.64 71.81 70.28 68.54 71.17 71.72 71.77 69.93
74.04 74.99 76.55 77.04 77.33 77.81 78.48 78.76 78.89 79.92 80.26 80.37 80.65 80.56 79.80 79.98 79.31 78.09 78.19 78.25 78.16 77.46 76.60 76.60 76.13 75.71 75.05 75.30 74.36 74.13 74.68 73.19 72.34 71.46 71.20 71.37 72.36 73.00 71.30 69.85 68.28 68.71 68.19
76.66 78.70 77.90 78.89 79.18 79.46 79.23 79.40 79.92 80.45 80.28 80.70 80.49 79.91 79.73 79.73 78.56 79.38 78.28 77.87 77.66 77.04 77.22 76.45 76.17 74.63 71.16 71.63 72.90 74.35 74.21 73.16 71.11 70.55 69.76 70.21 70.08 70.75 69.41 70.08 68.08 66.72 64.11
76.52 77.24 78.77 79.34 78.71 79.43 79.96 79.96 80.47 80.50 80.61 80.45 79.96 79.99 79.19 78.40 70.97 70.33 73.92 78.34 77.30 76.04 75.52 76.02 76.52 73.28 72.08 69.02 68.77 68.58 69.55 72.61 71.78 70.15 69.02 70.01 72.01 72.41 72.09 69.21 66.97 62.41 61.27
75.76 76.69 77.32 77.55 78.14 79.60 80.16 80.27 80.27 79.74 79.69 79.82 79.67 79.77 78.69 77.68 66.06 68.09 69.66 77.14 75.84 75.01 72.93 72.75 74.10 74.46 72.55 74.55 69.62 67.89 68.02 67.44 67.59 69.83 69.30 70.14 70.93 72.47 73.09 70.33 68.19 64.84 62.75
75.54 76.67 77.54 77.66 79.15 80.02 80.01 79.95 80.13 79.87 79.99 79.54 79.44 78.97 77.99 71.83 62.99 65.48 68.31 75.83 75.43 73.66 73.56 72.31 71.63 72.31 72.35 72.31 73.60 73.56 72.81 72.16 71.85 71.01 70.85 71.68 71.68 70.83 73.10 72.40 69.97 65.49 65.44
75.47 76.76 78.20 79.71 79.54 79.76 79.33 79.44 79.71 79.68 79.37 79.31 78.66 78.03 76.49 73.43 62.97 65.23 70.46 74.62 73.84 73.55 74.06 73.04 71.62 70.61 63.10 63.30 71.55 72.78 72.52 72.43 68.70 66.46 65.70 65.50 65.88 66.26 67.41 70.24 69.04 66.39 66.21
77.10 78.02 79.99 80.22 79.90 79.45 79.79 79.60 79.80 79.23 78.46 77.26 76.91 76.49 69.23 73.02 59.95 60.41 66.98 73.01 72.34 71.42 72.48 72.43 63.08 64.99 60.30 59.80 69.79 70.90 70.16 70.80 72.11 71.06 70.87 68.55 67.48 70.31 66.17 67.89 71.64 68.74 68.49
77.91 79.47 80.13 80.36 80.41 80.16 79.67 79.37 79.09 78.68 77.68 76.60 75.14 74.23 73.73 71.40 66.57 57.49 57.98 71.13 68.92 69.49 69.10 68.77 69.10 60.18 57.72 57.98 59.52 69.89 67.24 64.61 69.23 70.55 71.36 70.95 71.98 72.20 71.47 68.85 72.26 71.16 69.19
78.63 79.33 79.88 80.30 79.41 79.25 79.55 78.91 78.97 77.63 76.63 75.36 74.12 72.10 70.38 67.95 59.31 56.67 56.67 57.86 61.10 67.68 66.59 66.11 64.74 57.02 56.71 58.51 63.59 59.94 60.63 62.78 70.28 69.34 69.54 69.30 70.44 71.03 73.10 71.23 72.11 70.77 71.76
78.43 79.26 79.68 79.71 78.80 79.23 78.73 77.84 76.36 76.48 74.64 74.12 72.70 71.45 69.75 67.89 65.06 57.00 56.78 57.72 58.94 65.09 64.40 59.69 57.48 56.31 57.50 60.40 59.59 60.02 63.18 67.10 67.08 66.50 64.95 67.96 68.90 70.74 72.13 71.65 71.81 71.30 69.22
77.31 78.22 78.61 77.96 77.66 78.19 77.45 76.41 74.39 73.37 73.17 73.29 72.69 71.29 69.55 68.49 68.00 68.62 67.20 66.02 59.84 62.47 61.28 64.90 61.20 59.52 58.65 60.33 63.10 62.63 62.74 63.30 62.78 63.18 64.19 66.26 67.00 67.92 68.52 69.90 69.44 70.94 68.49
75.85 77.66 78.04 77.35 77.24 76.27 68.79 67.25 72.77 66.41 65.02 73.51 72.81 71.26 69.27 67.73 60.69 52.83 55.41 62.50 63.27 58.65 60.51 64.93 62.68 61.93 61.13 60.49 60.27 59.82 59.81 60.74 61.41 62.00 62.73 63.20 64.17 65.08 65.38 67.38 68.54 68.29 67.18
75.74 74.50 77.60 75.72 74.32 71.45 69.75 63.83 49.83 49.58 48.41 49.32 50.49 61.76 58.79 51.96 47.79 46.25 45.43 46.57 47.98 50.41 61.54 61.54 60.38 59.76 58.73 58.28 57.77 58.04 57.81 57.85 57.94 58.79 58.96 59.18 60.02 60.52 61.41 61.81 63.93 66.55 65.72
70.52 70.83 74.84 71.86 72.42 70.73 67.38 67.26 61.31 54.88 49.61 50.72 49.56 46.97 49.67 49.14 45.31 44.11 45.90 47.59 49.03 53.01 60.28 59.43 58.25 57.91 57.35 57.46 56.40 55.76 54.86 55.48 56.59 55.73 55.78 55.46 56.65 57.51 58.04 59.51 59.59 59.92 60.60
68.85 60.84 72.16 71.94 69.79 69.86 69.25 68.01 65.49 64.15 62.97 59.63 50.57 51.39 44.58 43.98 44.29 46.26 48.58 50.98 59.58 57.89 58.65 57.64 57.39 57.28 56.96 55.36 55.25 55.13 55.13 55.46 54.80 54.89 54.73 54.29 53.94 53.72 53.80 54.60 55.05 55.03 56.29
71.56 72.03 72.85 72.23 71.56 69.44 69.12 65.57 67.43 67.32 65.02 61.13 57.61 52.91 49.55 45.54 46.19 47.94 49.29 61.08 59.00 57.54 57.84 57.75 58.17 57.92 56.53 56.39 56.43 56.53 56.39 55.69 54.71 54.34 54.03 54.30 54.44 53.68 53.38 53.67 53.84 50.75 51.95
70.64 66.72 68.88 70.57 68.27 68.36 67.62 67.39 66.32 66.75 65.24 63.25 63.00 62.25 59.38 55.27 59.69 59.82 58.91 59.05 57.74 57.23 57.84 58.10 57.73 57.81 57.36 57.10 56.96 56.52 55.63 55.38 55.30 55.03 54.81 54.85 55.06 55.23 54.25 53.10 53.10 52.44 52.63
71.79 70.28 67.08 70.91 69.37 69.38 68.38 67.80 67.26 66.47 65.29 64.78 64.45 60.48 50.38 61.73 59.51 57.88 57.40 57.93 57.32 57.45 57.58 57.75 57.46 57.78 58.44 56.99 56.12 55.32 54.56 54.36 53.94 54.33 53.69 53.28 53.24 52.92 53.83 53.80 53.54 53.85 53.00
72.46 71.04 70.69 70.19 69.59 68.41 67.59 67.30 66.71 65.97 65.21 64.03 62.19 56.62 47.99 59.63 58.02 56.79 56.36 56.39 56.45 58.07 57.77 57.22 56.78 56.32 56.58 55.88 55.23 52.02 50.39 51.04 51.70 51.27 50.52 51.16 51.37 51.21 51.30 51.43 51.91 52.15 52.49
71.98 70.82 69.65 68.86 68.24 63.50 66.33 66.95 66.12 65.50 64.40 63.30 60.76 57.07 57.12 57.49 55.78 54.58 53.87 54.32 54.46 55.14 55.35 56.45 56.32 55.37 53.85 52.88 53.03 52.95 51.93 50.34 48.81 48.90 49.00 49.09 49.60 50.08 50.26 50.96 51.72 52.05 51.34
70.77 70.31 69.69 69.18 68.33 66.84 66.50 66.04 65.37 59.58 63.37 61.94 60.17 58.54 57.49 56.12 54.76 53.75 52.98 52.72 52.60 52.80 52.90 52.57 52.32 51.36 52.13 51.69 52.09 51.17 49.53 46.08 45.65 47.41 46.73 47.11 48.26 48.66 50.32 50.46 51.50 51.83 51.81
70.14 69.74 69.32 68.59 66.37 66.50 65.57 65.16 64.38 63.25 62.28 61.19 59.75 58.64 57.26 56.20 54.67 53.00 52.10 51.55 51.53 52.22 50.86 52.04 52.73 50.71 50.25 49.07 48.90 48.01 37.44 30.81 40.58 34.93 45.46 46.06 47.21 49.50 49.87 50.13 50.60 51.09 51.30
70.17 69.43 68.30 67.26 66.29 66.23 64.81 64.27 63.61 62.92 61.99 60.93 59.85 58.80 57.55 55.62 54.25 52.60 51.46 50.98 50.65 50.74 51.07 51.72 51.15 49.11 48.72 49.88 47.28 36.96 32.10 30.56 37.85 30.60 39.10 44.94 47.79 48.88 49.53 49.42 49.41 49.38 50.15
MSLP
1012.03 1012.66 1013.03 1013.55 1014.09 1014.56 1014.48 1014.91 1015.26 1015.37 1015.69 1015.76 1016.04 1016.12 1016.16 1016.35 1016.56 1016.78 1016.94 1016.98 1017.14 1017.35 1017.36 1017.57 1017.52 1017.72 1017.75 1016.97 1016.91 1016.99 1016.87 1017.04 1016.93 1016.73 1016.94 1016.94 1017.64 1017.83 1017.43 1018.36 1018.38 1018.88 1019.17
1011.47 1012.03 1012.82 1013.22 1013.55 1014.05 1014.20 1014.49 1014.89 1015.25 1015.41 1015.73 1015.84 1016.02 1016.06 1016.28 1016.44 1016.64 1016.79 1016.79 1016.97 1017.13 1017.10 1017.12 1017.19 1017.05 1017.29 1017.35 1017.13 1017.10 1016.75 1016.83 1016.99 1016.94 1016.52 1016.60 1017.76 1018.15 1018.01 1018.36 1018.11 1017.95 1018.21
1009.34 1011.18 1011.99 1012.78 1013.01 1013.47 1013.73 1014.23 1014.52 1014.91 1015.22 1015.35 1015.66 1016.02 1016.13 1016.22 1016.29 1016.48 1016.61 1016.70 1016.89 1017.05 1016.90 1016.93 1016.96 1016.85 1016.94 1016.89 1017.22 1016.70 1016.51 1016.88 1016.82 1017.19 1016.93 1017.09 1017.64 1018.25 1018.52 1018.36 1018.22 1018.29 1018.48
1009.39 1010.27 1011.28 1012.00 1012.39 1012.99 1013.31 1013.61 1014.25 1014.68 1015.06 1015.16 1015.48 1015.84 1015.77 1015.87 1016.07 1016.24 1016.40 1016.72 1016.83 1016.84 1016.99 1016.97 1016.85 1016.83 1016.81 1016.81 1016.82 1016.75 1016.87 1016.92 1016.91 1016.97 1016.47 1016.15 1016.24 1016.69 1017.47 1017.24 1017.82 1018.44 1018.66
1009.99 1010.43 1010.82 1011.55 1012.18 1012.87 1013.04 1013.33 1013.98 1014.46 1014.78 1014.88 1015.26 1015.60 1015.51 1015.78 1015.79 1016.15 1016.46 1016.64 1016.72 1016.77 1016.75 1016.81 1016.81 1017.01 1017.26 1017.26 1016.99 1016.64 1016.80 1016.92 1016.26 1016.05 1015.77 1015.63 1015.56 1015.93 1016.66 1016.66 1017.26 1017.87 1018.50
1009.81 1010.25 1010.83 1011.48 1012.18 1012.75 1012.63 1013.16 1013.75 1014.17 1014.42 1014.62 1014.99 1015.34 1015.39 1015.39 1016.29 1016.65 1016.81 1016.65 1016.64 1016.77 1016.72 1016.77 1016.75 1017.01 1017.05 1017.22 1017.29 1017.26 1017.30 1016.87 1016.70 1016.38 1016.16 1015.85 1015.82 1016.28 1016.54 1016.68 1017.17 1017.88 1018.09
1009.70 1010.17 1010.68 1011.42 1012.04 1012.24 1012.17 1012.84 1013.30 1013.70 1014.08 1014.38 1014.71 1015.12 1015.39 1015.86 1016.61 1016.84 1017.00 1016.78 1016.69 1016.91 1017.20 1017.08 1016.59 1016.14 1016.76 1016.65 1016.84 1016.99 1017.05 1016.97 1017.06 1016.87 1016.57 1016.21 1016.24 1016.31 1016.53 1016.62 1016.91 1017.35 1017.43
1009.25 1009.78 1010.51 1011.11 1011.57 1011.64 1011.94 1012.41 1013.02 1013.43 1013.88 1014.21 1014.56 1015.15 1015.63 1016.74 1016.88 1016.98 1016.99 1016.77 1016.80 1017.00 1017.04 1017.10 1017.12 1017.05 1017.07 1017.08 1016.56 1016.09 1016.05 1015.95 1016.23 1016.29 1016.20 1016.06 1016.17 1016.49 1016.24 1016.39 1016.52 1017.23 1017.30
1008.98 1009.53 1010.14 1010.67 1010.89 1011.25 1011.63 1012.14 1012.78 1013.23 1013.68 1014.16 1014.76 1015.37 1016.02 1016.86 1017.03 1016.82 1016.61 1016.24 1016.45 1016.56 1016.70 1017.13 1017.26 1017.46 1017.73 1017.40 1016.89 1016.04 1015.84 1015.61 1015.70 1015.94 1016.16 1016.21 1016.35 1016.48 1016.49 1016.45 1016.07 1016.23 1015.98
1008.36 1009.12 1009.63 1009.91 1010.27 1010.76 1011.43 1012.01 1012.66 1013.26 1013.50 1014.09 1014.87 1015.64 1016.43 1016.88 1017.45 1017.40 1017.04 1016.34 1016.38 1016.03 1016.31 1017.15 1017.66 1017.98 1017.85 1017.52 1017.03 1016.42 1016.14 1015.85 1015.66 1015.76 1015.85 1015.52 1015.58 1015.35 1015.91 1016.09 1015.49 1015.65 1015.51
1008.81 1009.17 1009.64 1009.90 1009.96 1010.63 1011.43 1011.96 1012.51 1012.92 1013.64 1014.29 1015.20 1016.00 1016.50 1017.02 1017.71 1017.65 1017.61 1017.01 1016.77 1016.29 1016.06 1016.32 1016.87 1018.16 1018.00 1017.64 1017.21 1016.75 1016.81 1016.75 1016.25 1015.98 1015.33 1014.79 1014.47 1014.60 1014.70 1015.17 1015.00 1015.26 1015.22
1009.07 1009.57 1009.78 1009.34 1009.42 1010.39 1011.12 1011.92 1012.47 1013.11 1013.85 1014.52 1015.21 1015.73 1016.69 1017.55 1017.89 1018.16 1018.25 1018.19 1018.09 1017.34 1017.20 1017.24 1017.80 1018.37 1018.17 1017.88 1017.47 1017.43 1016.93 1016.41 1015.58 1015.47 1014.83 1014.36 1014.17 1014.09 1014.17 1014.12 1014.26 1014.64 1014.72
1008.65 1009.63 1009.91 1009.20 1009.58 1010.20 1010.89 1011.68 1012.57 1013.15 1013.54 1014.14 1014.75 1015.24 1016.27 1017.19 1017.97 1018.71 1018.75 1018.69 1018.57 1017.91 1018.16 1018.52 1018.46 1018.33 1017.89 1017.78 1017.56 1017.32 1016.91 1016.62 1016.28 1015.80 1015.58 1014.99 1014.69 1014.51 1014.25 1013.94 1013.89 1014.12 1014.22
1006.03 1008.47 1009.44 1009.82 1009.88 1010.32 1010.96 1011.45 1012.12 1012.87 1013.33 1013.76 1014.32 1014.93 1015.78 1016.60 1017.51 1018.13 1018.30 1018.38 1018.62 1018.49 1018.38 1018.02 1018.31 1018.28 1018.17 1018.01 1017.30 1017.39 1017.58 1017.37 1017.08 1016.61 1016.20 1015.73 1015.39 1014.99 1014.30 1013.89 1013.81 1013.69 1013.68
1006.55 1007.38 1008.91 1009.49 1010.63 1010.91 1012.13 1012.82 1012.42 1013.93 1014.36 1013.98 1014.36 1014.92 1015.87 1016.67 1018.67 1019.39 1019.25 1018.86 1018.56 1018.49 1017.98 1017.58 1017.81 1017.93 1017.96 1018.16 1018.22 1018.31 1018.26 1017.85 1017.40 1017.19 1016.63 1016.13 1015.78 1015.48 1014.99 1014.48 1013.87 1013.33 1013.35
1007.25 1006.87 1008.55 1009.63 1011.15 1011.82 1012.32 1013.73 1014.87 1015.45 1014.97 1015.17 1015.52 1016.05 1017.58 1018.08 1019.16 1019.62 1019.79 1019.39 1018.81 1018.29 1017.72 1017.78 1018.16 1018.36 1018.46 1018.50 1018.45 1018.49 1018.53 1018.49 1018.40 1018.05 1017.62 1017.25 1016.82 1016.34 1015.94 1015.55 1015.01 1014.51 1013.94
1007.57 1008.16 1008.60 1009.96 1010.98 1011.26 1012.07 1013.04 1014.80 1017.01 1016.78 1016.88 1017.54 1017.96 1018.16 1018.85 1019.40 1019.71 1019.88 1019.52 1018.94 1018.26 1017.63 1017.96 1018.35 1018.75 1019.14 1019.19 1019.39 1019.49 1019.37 1019.34 1019.28 1018.90 1018.66 1018.50 1018.02 1017.45 1016.86 1016.20 1015.72 1015.36 1014.80
1008.24 1009.45 1009.34 1009.94 1010.54 1011.06 1011.02 1012.36 1014.37 1015.93 1017.22 1018.04 1018.51 1018.94 1019.21 1019.27 1019.55 1019.64 1019.37 1019.28 1018.00 1017.80 1018.00 1018.45 1018.83 1019.30 1019.71 1019.99 1019.91 1019.74 1019.66 1019.36 1019.23 1019.19 1018.92 1018.71 1018.45 1018.14 1017.66 1017.24 1016.77 1016.32 1015.66
1008.78 1010.06 1009.68 1009.17 1009.78 1009.88 1011.01 1012.21 1013.44 1014.82 1015.72 1016.97 1018.18 1018.97 1019.39 1019.38 1019.45 1019.39 1018.79 1018.05 1017.86 1017.76 1018.04 1018.47 1018.95 1019.10 1019.80 1020.05 1020.17 1020.09 1019.88 1019.66 1019.58 1019.27 1019.02 1018.79 1018.50 1018.26 1017.90 1017.54 1017.08 1016.73 1016.13
1008.31 1007.98 1008.10 1009.28 1009.64 1010.23 1011.00 1011.87 1012.74 1013.75 1014.78 1015.65 1016.16 1016.80 1017.99 1018.91 1018.25 1017.93 1018.04 1018.09 1017.72 1017.79 1018.25 1018.50 1018.95 1019.13 1019.61 1019.95 1019.89 1019.82 1019.65 1019.48 1019.34 1019.15 1019.03 1018.91 1018.49 1018.04 1017.57 1017.32 1017.00 1016.67 1016.28
1007.33 1007.43 1007.34 1007.75 1008.55 1009.22 1010.14 1010.93 1011.78 1012.69 1013.43 1014.16 1015.02 1016.27 1017.08 1016.71 1016.90 1017.05 1017.82 1018.19 1017.62 1017.94 1018.35 1018.49 1018.75 1019.05 1019.14 1019.74 1020.10 1019.92 1019.96 1019.89 1020.07 1019.48 1018.97 1018.65 1018.51 1018.10 1017.75 1017.39 1017.00 1016.36 1015.97
1005.86 1006.34 1006.77 1007.17 1008.23 1009.06 1009.96 1010.84 1011.50 1012.28 1012.91 1013.86 1015.09 1016.68 1017.02 1016.44 1016.56 1016.90 1017.52 1017.80 1018.01 1018.47 1018.38 1018.67 1018.78 1019.01 1019.19 1019.62 1020.24 1020.71 1020.65 1020.16 1019.78 1019.48 1019.48 1019.13 1018.68 1018.32 1017.84 1017.46 1016.85 1016.34 1015.92
1005.94 1006.59 1007.25 1007.59 1008.13 1009.27 1010.20 1010.54 1011.28 1012.10 1012.81 1013.70 1014.94 1015.81 1016.20 1015.98 1016.25 1016.85 1017.36 1017.51 1018.11 1018.25 1018.24 1018.41 1018.49 1018.68 1019.34 1019.71 1019.67 1019.64 1019.68 1019.88 1020.22 1020.33 1019.78 1019.27 1018.76 1018.11 1017.98 1017.26 1016.71 1016.21 1015.88
1005.48 1006.33 1006.86 1007.40 1008.03 1008.92 1009.59 1010.54 1011.42 1012.14 1012.68 1013.46 1014.06 1014.56 1014.99 1015.60 1015.86 1016.52 1016.86 1017.39 1017.94 1018.33 1018.20 1018.40 1018.74 1019.08 1019.67 1019.83 1019.73 1019.98 1020.47 1021.57 1021.48 1020.55 1020.53 1019.76 1018.91 1018.35 1017.79 1017.27 1016.50 1016.06 1015.53
1005.14 1005.55 1006.44 1007.18 1008.07 1008.37 1009.42 1010.20 1011.13 1012.06 1012.69 1013.06 1013.67 1014.35 1014.99 1015.43 1015.76 1016.34 1016.61 1017.14 1017.87 1018.32 1018.63 1018.80 1018.89 1019.16 1019.24 1019.71 1019.83 1020.37 1021.89 1022.29 1021.83 1021.71 1020.58 1020.05 1018.91 1018.21 1017.47 1016.85 1016.26 1015.59 1014.83
1004.76 1005.49 1006.22 1007.04 1007.74 1008.21 1009.17 1009.84 1010.50 1011.13 1011.94 1012.59 1013.33 1014.12 1014.72 1015.08 1015.72 1016.41 1016.84 1017.34 1017.75 1018.26 1018.54 1018.57 1019.09 1019.77 1019.81 1019.47 1020.18 1021.20 1021.67 1022.04 1021.71 1021.69 1021.11 1019.80 1018.81 1018.10 1017.35 1016.84 1016.20 1015.39 1014.36
Wind_Speed
13 12 12 12 13 12 11 9 8 7 5 5 3 4 4 5 6 6 7 6 6 7 6 7 8 6 6 7 5 6 6 5 8 7 3 4 4 7 6 9 9 9 11
10 12 13 12 12 13 12 10 9 8 6 6 5 6 5 5 5 6 7 7 5 8 7 8 8 6 7 7 7 7 7 6 7 8 8 4 5 3 3 4 7 9 9
16 14 13 14 13 14 13 12 9 8 8 7 6 5 5 5 5 4 5 5 4 4 6 6 6 6 7 6 7 7 7 6 6 6 7 3 4 4 5 8 8 8 6
14 17 15 15 14 13 11 10 10 8 9 7 6 5 5 4 4 4 2 2 2 3 3 4 5 6 7 6 7 7 6 6 7 7 7 7 8 6 5 6 6 4 4
12 13 14 13 12 12 11 10 9 8 8 6 6 6 5 2 2 2 2 2 1 3 2 3 4 3 5 5 6 5 6 8 8 7 7 7 8 5 6 4 7 5 5
12 14 12 10 11 12 11 11 10 9 7 6 6 6 4 1 9 4 3 1 1 3 4 4 5 7 9 9 9 9 9 8 9 9 9 9 8 5 6 6 4 4 4
14 14 13 11 11 13 13 12 11 10 9 9 7 5 5 7 10 4 3 3 4 4 4 6 7 0 3 5 10 10 11 11 11 11 11 11 10 8 7 7 8 6 3
14 14 13 13 13 13 13 12 12 10 9 8 7 7 5 6 7 5 4 3 4 3 2 3 4 5 10 8 7 6 6 6 9 9 11 12 9 8 8 6 7 5 3
15 14 14 15 15 14 14 13 11 10 9 7 7 7 6 7 7 5 4 1 4 4 5 7 6 5 9 10 7 6 5 5 4 5 6 8 10 9 6 6 7 8 8
15 15 15 15 15 15 14 13 11 10 10 9 8 7 6 8 9 8 9 3 3 3 3 8 12 9 8 8 6 6 5 5 5 4 6 8 12 8 11 9 9 6 6
11 13 14 15 14 14 13 11 11 10 10 10 9 7 7 6 8 12 12 3 5 5 5 4 6 10 9 6 4 4 4 5 6 6 7 7 5 5 6 8 10 9 9
9 12 14 15 13 13 14 12 12 11 10 9 9 7 7 8 7 10 9 9 7 6 5 5 6 7 5 8 7 9 5 8 4 4 6 7 6 6 5 5 5 4 7
11 12 12 13 13 13 13 13 11 10 9 9 8 7 7 6 6 7 7 5 5 4 6 3 6 6 8 8 7 7 7 7 7 6 5 9 8 7 6 5 5 8 7
19 15 13 11 13 13 11 11 10 9 8 7 7 7 7 6 4 2 2 2 7 6 9 2 2 5 6 7 6 8 7 6 5 5 5 5 6 8 8 7 7 7 5
14 13 12 10 10 11 11 6 3 10 6 6 6 6 6 7 7 6 7 5 4 3 5 3 5 5 6 7 6 7 7 7 7 8 7 8 8 8 8 10 9 8 6
12 11 10 11 10 9 9 10 23 14 17 19 20 8 10 15 11 5 3 2 2 4 2 4 5 5 5 6 6 7 7 9 8 7 7 7 7 8 8 9 9 8 7
7 8 8 9 11 11 9 9 11 13 20 19 15 12 11 14 9 7 6 6 5 6 5 5 5 5 6 7 7 7 7 7 7 7 7 8 9 9 10 8 7 8 9
17 3 14 14 11 10 11 11 10 9 7 7 9 8 8 10 8 8 8 6 4 5 6 5 5 5 6 5 5 5 5 5 5 6 7 7 7 7 8 8 8 9 9
26 20 15 11 10 10 9 9 9 10 10 9 9 8 7 8 7 6 8 2 4 5 5 4 4 4 5 3 4 5 6 7 6 6 6 6 6 7 8 8 8 10 11
11 18 13 11 12 12 11 12 11 11 10 10 9 8 9 9 7 5 4 3 4 5 4 3 4 4 5 4 4 4 6 6 7 7 7 7 8 8 7 8 8 9 9
13 12 13 12 12 12 12 11 12 11 11 10 8 6 5 5 6 5 4 3 4 4 3 3 3 3 2 4 6 7 8 9 10 9 8 8 9 9 9 9 10 9 8
12 12 10 11 11 11 11 11 11 11 11 10 9 7 3 5 6 6 5 4 4 2 3 3 2 3 4 4 3 4 5 6 6 8 10 10 9 9 9 10 9 9 9
11 12 12 11 12 12 12 11 11 11 11 10 10 10 9 7 6 6 5 5 4 3 4 2 2 3 5 4 4 5 6 7 9 9 10 10 10 9 9 10 10 10 9
12 13 12 12 12 13 12 12 11 11 11 11 10 9 8 8 7 7 6 5 4 3 3 3 4 4 3 4 4 5 8 8 8 9 12 10 11 11 10 11 11 13 11
12 13 13 13 14 13 13 13 12 12 11 10 9 8 8 7 7 7 6 5 4 3 4 2 2 2 1 1 3 6 9 5 8 9 9 13 13 13 11 10 12 13 15
13 14 13 12 13 12 13 13 13 12 11 10 9 9 9 8 7 6 5 5 5 4 2 2 2 1 1 2 8 6 3 4 7 6 9 10 10 11 11 13 17 13 14
Wind_Direction
199 194 196 202 205 214 210 214 229 234 226 243 244 252 221 210 212 229 255 269 231 240 255 250 251 253 272 274 251 260 263 256 264 270 319 72 199 246 190 212 203 213 187
201 193 202 198 209 210 213 217 221 226 217 211 210 227 226 220 203 225 247 281 276 271 262 260 257 252 247 250 260 265 280 279 267 277 278 219 226 202 271 224 244 221 243
165 190 200 202 201 216 203 209 223 219 227 221 230 224 212 211 228 248 281 293 266 309 282 265 273 272 257 269 261 271 237 239 238 257 271 194 207 201 219 227 237 225 249
176 185 193 200 203 211 209 198 205 214 225 216 236 225 224 239 262 266 274 305 305 304 288 279 277 271 267 261 260 262 265 261 218 248 257 258 228 158 252 253 223 218 243
180 182 185 191 197 205 190 183 192 197 213 209 213 225 230 215 236 143 114 69 7 314 261 253 234 332 350 312 290 258 249 241 249 245 260 257 258 214 227 254 239 211 227
175 179 175 181 187 195 170 174 176 186 199 186 194 205 195 153 67 47 331 15 335 297 296 283 280 193 216 227 249 270 301 268 259 289 298 298 317 300 275 245 237 198 227
185 186 181 180 191 183 163 166 172 176 174 173 174 184 151 105 39 72 177 254 313 355 308 300 297 76 248 269 209 218 238 247 248 269 268 268 275 289 281 233 227 208 214
181 180 179 186 181 167 159 161 166 167 172 168 156 155 137 75 43 74 172 61 65 56 267 320 324 325 9 330 297 277 256 234 220 228 240 265 283 284 290 261 235 221 228
177 173 176 179 164 159 158 158 164 167 165 154 138 146 130 70 43 50 298 104 69 73 59 54 44 31 5 344 293 289 301 296 178 213 273 283 278 286 293 290 242 218 228
167 175 175 165 158 157 155 157 163 166 152 147 136 112 98 110 44 21 5 349 34 356 139 130 73 20 339 337 300 300 290 296 304 306 276 239 230 245 229 238 257 263 253
171 168 167 163 148 148 152 154 155 159 139 129 133 128 116 95 65 39 17 35 353 325 339 358 43 10 336 339 301 348 341 313 304 291 277 274 282 246 226 219 239 250 260
165 173 173 154 152 152 148 148 148 141 145 146 148 154 120 107 64 66 47 36 354 330 340 2 35 356 348 35 16 347 302 271 268 273 291 304 305 301 294 275 252 268 259
164 177 178 154 151 149 150 145 148 157 156 170 171 165 146 141 128 131 109 45 21 333 17 31 283 274 276 176 75 7 355 11 2 0 4 335 349 330 299 288 281 280 259
145 164 171 163 154 151 152 157 156 172 180 183 180 169 157 151 130 104 100 166 202 232 172 132 23 293 62 9 352 49 16 16 4 3 343 333 328 331 323 327 313 304 261
145 145 167 147 174 139 70 44 173 53 1 195 170 165 172 148 85 49 11 22 8 63 290 58 40 32 35 30 37 32 21 8 7 357 348 352 348 343 341 334 319 314 289
169 140 155 155 151 140 125 92 48 46 55 49 41 74 71 97 124 123 143 126 1 300 93 51 47 32 31 28 26 21 21 16 12 4 1 354 341 325 337 336 336 337 318
103 95 111 150 171 152 136 134 114 64 56 60 63 66 91 132 150 159 131 110 39 293 77 63 50 34 29 25 27 21 19 23 10 3 6 -0 352 353 337 339 333 335 332
116 160 186 175 164 167 148 134 127 134 133 118 68 93 116 133 154 181 213 251 149 82 60 55 53 42 26 25 12 18 11 13 19 360 360 1 357 350 347 346 345 342 334
153 193 197 161 171 133 124 127 141 169 160 132 138 146 140 136 158 199 250 65 67 74 71 68 53 37 54 4 4 4 357 7 359 354 354 347 346 345 341 337 333 333 319
204 160 158 150 143 140 151 157 171 167 157 161 170 159 156 178 181 135 105 120 101 77 75 68 41 43 33 2 357 350 359 354 1 346 346 338 338 328 338 332 330 331 329
186 160 155 150 155 161 164 170 160 163 167 169 161 120 75 197 154 128 127 127 100 97 83 58 39 28 31 3 350 5 3 359 350 337 340 339 333 329 331 331 329 323 323
174 165 166 156 166 161 164 166 164 169 165 163 145 146 208 194 149 143 143 132 107 106 80 73 37 19 21 21 19 2 351 327 326 342 336 329 329 326 323 321 317 318 324
168 166 176 166 163 161 171 165 169 171 168 161 155 157 185 164 150 146 144 128 128 128 102 67 34 23 30 1 352 345 339 358 356 335 325 327 321 325 326 312 318 317 320
164 170 172 165 166 167 168 170 172 173 166 164 164 165 163 164 157 139 145 138 142 136 114 96 69 54 9 341 -0 360 35 7 334 327 338 313 314 317 325 317 315 320 310
173 168 176 168 166 173 163 172 168 167 173 166 162 166 165 163 155 157 146 144 134 134 108 91 102 100 118 31 39 14 45 0 318 320 311 318 306 306 302 302 306 310 309
171 172 173 171 176 167 171 171 170 169 169 167 167 170 171 165 158 157 145 145 149 147 150 148 116 283 289 242 76 36 331 308 321 321 307 295 296 310 314 315 310 308 307